HETCH HETCHY (HTH)

Elevation: 3870' · TUOLUMNE R basin · Operator: Hetch Hetchy Water and Power

Provisional data, subject to change.
Query executed Tuesday at 16:49:31   clock

Select a sensor type for a plot of data.
Note: Reservoir Flows are daily averages.

Earlier

Date RES ELE    STORAGE    RES CHG    OUTFLOW    INFLOW    PPT INC    RAIN    PPTINC4   
 FEET   AF   AF   CFS   CFS   INCHES   INCHES   INCHES  
09/22/2014 -- 285080 -- 383 -- 0.00 21.13 0.00
09/23/2014 -- 284170 -- 453 -- 0.00 21.13 0.00
09/24/2014 -- 283440 -- 440 -- 0.00 21.13 0.00
09/25/2014 -- 282530 -- 441 -- 0.00 21.13 0.00
09/26/2014 -- 281810 -- 410 -- 0.02 21.15 0.01
09/27/2014 -- 281080 -- 402 -- 0.04 21.19 0.03
09/28/2014 -- 280360 -- 349 -- 0.36 21.55 0.32
09/29/2014 -- 279630 -- 363 -- 0.00 21.55 0.24
09/30/2014 -- 278910 -- 375 -- 0.00 21.55 0.00
10/01/2014 -- 278370 -- 317 -- 0.00 0.00 0.00
10/02/2014 -- 277830 -- 300 -- 0.00 0.00 0.00
10/03/2014 -- 277290 -- 312 -- 0.00 0.00 0.00
10/04/2014 -- 276570 -- 373 -- 0.00 0.00 0.00
10/05/2014 -- 276030 -- 319 -- 0.00 0.00 0.00
10/06/2014 -- 275310 -- 300 -- 0.00 0.00 0.00
10/07/2014 -- 274770 -- 290 -- 0.00 0.00 0.00
10/08/2014 -- 274240 -- 280 -- 0.00 0.00 0.00
10/09/2014 -- 273700 -- 341 -- 0.00 0.00 0.00
10/10/2014 -- 272990 -- 356 -- 0.00 0.00 0.00
10/11/2014 -- 272450 -- 239 -- 0.00 0.00 0.00
10/12/2014 -- 272098 -- 248 -- 0.00 0.00 0.00
10/13/2014 -- 271564 -- 276 -- 0.00 0.00 0.00
10/14/2014 -- 270674 -- 376 -- 0.00 0.00 0.00
10/15/2014 -- 269786 -- 497 -- 0.00 0.00 0.00
10/16/2014 -- 268724 -- 511 -- 0.00 0.00 0.00
10/17/2014 -- 268016 -- 463 -- 0.00 0.00 0.00
10/18/2014 -- 267308 -- 291 -- 0.00 0.00 0.00
10/19/2014 -- 266954 -- 287 -- 0.00 0.00 0.00
10/20/2014 -- 266248 -- 35 -- 0.00 0.00 0.00
10/21/2014 -- -- -- -- -- -- -- 0.00

Later | Latest

Warning! This data is preliminary and subject to revision.

Show HTH Map | Plot HTH Data | 1 Month HTH Data | Real-Time HTH Data | HTH Info